Regional Weather Roundup
Issued by NWS

Home | Current Version | Previous Version | Text Only | Print | Product List | Glossary Off
Versions: 1 2 3 4 5 6 7 8 9 10 11 12 13 14 15 16 17 18 19 20 21 22 23 24 25 26 27 28 29 30 31 32 33 34 35 36 37 38 39 40 41 42 43 44 45 46 47 48 49 50

000
ASUS43 KFSD 251610
RWRSD

WEATHER ROUNDUP FOR SOUTH DAKOTA
NATIONAL WEATHER SERVICE SIOUX FALLS SD
1000 AM CST SAT FEB 25 2017

NOTE: "FAIR" INDICATES FEW OR NO CLOUDS BELOW 12,000 FEET WITH NO
SIGNIFICANT WEATHER AND/OR OBSTRUCTIONS TO VISIBILITY.


SDZ001>005-009-010-012>017-251700-
NORTHWEST AND NORTH CENTRAL SOUTH DAKOTA

CITY           SKY/WX    TMP DP  RH WIND       PRES   REMARKS
BUFFALO          N/A     29  21  72 W18       29.78F WCI  16
FAITH            N/A     28  25  88 W13       29.87F WCI  17
MOBRIDGE       SUNNY     29  17  61 SW6       29.87F WCI  23
$$

SDZ012>016-024>037-041>051-057-063-072>074-251700-
SOUTHWEST AND SOUTH CENTRAL SOUTH DAKOTA

CITY           SKY/WX    TMP DP  RH WIND       PRES   REMARKS
RAPID CTY ARPT CLOUDY    27  16  63 W3        29.88F
PIERRE         SUNNY     26  17  68 SW9       29.92F WCI  17
CUSTER         SUNNY     21  11  65 W7        29.77F WCI  12
ELLSWORTH AFB  CLOUDY    28  20  72 N12       29.87F WCI  18
PHILIP         CLOUDY    24  17  74 W10       29.92F WCI  14
PINE RIDGE     SUNNY     17  11  77 W12       29.93F WCI   4
SPEARFISH      PTSUNNY   25  18  74 W13       29.86F WCI  13
WINNER         CLOUDY    20  12  71 SW14      29.94F WCI   7
$$

SDZ004>011-016>023-039-040-251700-
NORTHEAST SOUTH DAKOTA

CITY           SKY/WX    TMP DP  RH WIND       PRES   REMARKS
ABERDEEN       SUNNY     28  17  63 SW15      29.93F WCI  16
WATERTOWN      PTSUNNY   24  19  81 SW13      29.94F WCI  12
BROOKINGS      PTSUNNY   23  17  78 SW10      29.97F WCI  12
SISSETON         N/A     30  19  63 W14       29.92F WCI  19
$$

SDZ017-020-022-023-036>040-048>070-251700-
SOUTHEAST SOUTH DAKOTA

CITY           SKY/WX    TMP DP  RH WIND       PRES   REMARKS
SIOUX FALLS    CLOUDY    21  16  81 W5        30.02F WCI  15
HURON          CLOUDY    26  18  71 SW14      29.98F WCI  14
CHAMBERLAIN    CLOUDY    27  18  71 S14       29.96F WCI  15
MITCHELL       CLOUDY    26  17  68 SW10      30.02F WCI  16
YANKTON        CLOUDY    21  14  73 SW8       30.06F WCI  12
$$

ABBREVIATIONS USED IN REMARKS
   TC - TEMPERATURE IN CELSIUS
  WCI - WIND CHILL INDEX
   HX - HEAT INDEX
  VSB - VISIBILITY




USA.gov is the U.S. government's official web portal to all federal, state and local government web resources and services.